[[{"header":{"parameterUnit":"m.s-1","parameterCategory":1,"la1":30.2991,"la2":30.254,"lo1":-89.0895,"lo2":-89.0444,"dx":0.0017,"dy":0.0017,"nx":28,"ny":28,"refTime":"2022-12-29T15:00:00:Z","depth":0,"parameterNumber":2,"parameterNumberName":"U-component_of_WINDS"},"data":[0,0,0,0,0,0,0,0,0,0,0,0,0,0,0,0,0,0,0,0,0,0,0,0,0,0,0,0,0,0,0,0,0,0,0,0,0,0,0,0,0,0,0,0,0,0,0,0,0,0,0,0,0,0,0,0,0,0,-3.457,-3.4571,0,-3.4644,-3.4644,-3.4645,-3.4615,-3.4614,-3.4612,-3.461,-3.4687,-3.4691,-3.4694,0,0,0,0,0,0,0,0,0,0,0,0,0,-3.4407,-3.441,-3.457,-3.4571,-3.4572,-3.4644,-3.4645,-3.4646,-3.4616,-3.4614,-3.4612,-3.461,-3.4686,-3.469,-3.4695,0,0,0,0,0,0,0,0,0,0,0,0,0,-3.4479,-3.4411,-3.457,-3.4566,-3.4566,-3.4643,-3.4645,-3.4646,-3.4616,-3.4614,-3.4611,-3.4609,-3.4685,-3.469,-3.4695,-3.4782,0,0,-3.4712,-3.4715,0,0,0,0,0,0,0,0,-3.4475,-3.4485,-3.4565,-3.4566,-3.4567,-3.4618,-3.4615,-3.4691,-3.4617,-3.4597,-3.461,-3.4607,-3.4666,-3.4673,-3.4693,-3.4785,-3.4788,-3.4713,-3.4716,-3.4718,-3.472,0,0,0,0,0,0,0,-3.447,-3.4482,-3.4599,-3.4567,-3.4567,-3.4561,-3.4568,-3.4629,-3.4646,-3.4599,-3.4597,-3.4606,-3.4666,-3.4687,-3.4694,-3.479,-3.4713,-3.4717,-3.4721,-3.4723,-3.4959,-3.4961,0,0,0,0,0,0,-3.4465,-3.4478,-3.4597,-3.4601,-3.4513,-3.4566,-3.4574,-3.4604,-3.4645,-3.4648,-3.4608,-3.4604,-3.4679,-3.4688,-3.4697,-3.4801,-3.4718,-3.4723,-3.4727,-3.4956,-3.4959,-3.4962,0,0,0,0,0,0,-3.4461,-3.4475,-3.4594,-3.4539,-3.4554,-3.4572,-3.4605,-3.4607,-3.4628,-3.4652,-3.4655,-3.4627,-3.4678,-3.4689,-3.4761,-3.4803,-3.4726,-3.4731,-3.4952,-3.4957,-3.4961,-3.501,0,0,0,0,0,0,-3.4457,-3.4474,-3.4506,-3.454,-3.4557,-3.4656,-3.4608,-3.461,-3.4637,-3.4633,-3.467,-3.4674,-3.4676,-3.4753,-3.4767,-3.481,-3.4735,-3.4948,-3.4954,-3.4959,-3.5005,-3.5016,-3.5025,0,0,0,0,0,-3.4451,-3.4517,-3.4508,-3.4523,-3.4597,-3.4658,-3.4668,-3.4669,-3.4641,-3.4674,-3.469,-3.4672,-3.4797,-3.4761,-3.4776,-3.4821,-3.4946,-3.4953,-3.4959,-3.5,-3.5013,-3.5025,0,0,0,0,0,0,-3.4488,-3.4521,-3.4512,-3.4591,-3.4622,-3.4653,-3.4694,-3.4683,-3.4723,-3.4718,-3.4719,-3.4727,-3.4802,-3.4819,-3.4778,-3.4908,-3.4867,-3.4877,-3.4893,-3.4906,-3.4916,-3.491,-3.474,0,0,0,0,0,-3.4505,-3.4552,-3.4579,-3.4646,-3.4662,-3.4676,-3.4703,-3.4702,-3.4734,-3.4747,-3.4768,-3.4801,-3.4847,-3.4878,-3.4922,-3.5008,-3.5016,-3.5047,-3.5057,-3.5065,-3.5073,-3.5121,-3.5135,-3.4984,-3.4984,-3.4984,0,0,-3.4542,-3.4566,-3.4595,-3.4654,-3.4678,-3.4727,-3.4687,-3.474,-3.4777,-3.4755,-3.4824,-3.4841,-3.4878,-3.4957,-3.4994,-3.4974,-3.5117,-3.5073,-3.508,-3.5084,-3.5129,-3.5144,-3.5156,-3.4989,-3.4988,-3.4987,0,0,-3.4633,-3.4655,-3.4714,-3.474,-3.4777,-3.4786,-3.48,-3.4834,-3.4844,-3.4913,-3.4899,-3.4943,-3.5023,-3.505,-3.5075,-3.5179,-3.5165,-3.5194,-3.5246,-3.5293,-3.5305,-3.5315,-3.5353,-3.5366,-3.5202,-3.5202,-3.5203,0,-3.4673,-3.4745,-3.4746,-3.4801,-3.4828,-3.4812,-3.4872,-3.4897,-3.4947,-3.4966,-3.4944,-3.5045,-3.5069,-3.5155,-3.518,-3.5201,-3.5218,-3.5189,-3.5303,-3.5313,-3.5323,-3.5359,-3.5373,-3.5206,-3.5205,-3.5205,-3.5205,0,-3.4793,-3.4844,-3.4888,-3.4936,-3.4968,-3.5026,-3.5037,-3.5069,-3.5066,-3.5078,-3.515,-3.5179,-3.5229,-3.5249,-3.5247,-3.5336,-3.5323,-3.5302,-3.5261,-3.5341,-3.5374,-3.5388,-3.521,-3.5209,-3.5208,-3.5207,0,0,-3.4907,-3.4957,-3.4973,-3.4996,-3.5037,-3.5076,-3.5134,-3.5183,-3.5211,-3.5247,-3.5296,-3.5366,-3.5347,-3.5375,-3.5376,-3.5417,-3.5499,-3.5391,-3.5392,-3.541,-3.56,-3.5614,-3.563,-3.549,-3.5493,-3.5495,-3.5596,0,-3.5001,-3.5101,-3.5105,-3.5197,-3.5244,-3.5231,-3.5281,-3.5312,-3.5326,-3.5369,-3.5385,-3.5434,-3.5405,-3.5422,-3.5462,-3.548,-3.5537,-3.5473,-3.5536,-3.5539,-3.5526,-3.5648,-3.5663,-3.5757,-3.561,-3.5612,-3.5613,0,-3.5123,-3.5163,-3.5259,-3.5295,-3.5315,-3.536,-3.5406,-3.5448,-3.5484,-3.5491,-3.5523,-3.5519,-3.5579,-3.5538,-3.5622,-3.5579,-3.5605,-3.5618,-3.5622,-3.5627,-3.558,-3.5655,-3.5787,-3.5801,-3.5634,-3.5633,-3.5631,0,-3.5196,-3.5274,-3.5342,-3.5362,-3.5406,-3.5438,-3.5458,-3.5491,-3.5521,-3.5562,-3.5582,-3.563,-3.5656,-3.5694,-3.5703,-3.5671,-3.5787,-3.5746,-3.5795,-3.5795,-3.5818,-3.5817,-3.5955,-3.5838,-3.5837,-3.5837,-3.5837,0,-3.53,-3.5359,-3.5376,-3.5418,-3.5485,-3.549,-3.5556,-3.5574,-3.5605,-3.565,-3.5642,-3.5686,-3.5696,-3.5742,-3.575,-3.5818,-3.583,-3.5838,-3.584,-3.5839,-3.5837,-3.5855,-3.5848,-3.5841,-3.584,-3.5839,-3.5839,0,-3.5392,-3.5405,-3.5479,-3.5515,-3.5525,-3.5573,-3.5604,-3.5645,-3.5658,-3.5717,-3.5731,-3.5752,-3.5806,-3.582,-3.5884,-3.5889,-3.5971,-3.5966,-3.5958,-3.5958,-3.6006,-3.6001,-3.616,-3.6181,-3.605,-3.6051,-3.6052,0,-3.5457,-3.5502,-3.5543,-3.5573,-3.5595,-3.5643,-3.5674,-3.5682,-3.5714,-3.576,-3.5796,-3.5849,-3.5891,-3.5979,-3.6001,-3.605,-3.6046,-3.6099,-3.6054,-3.6052,-3.6047,-3.6044,-3.6048,-3.6107,-3.6108,-3.6109,-3.611,0,-3.557,-3.5575,-3.5619,-3.5666,-3.5703,-3.5741,-3.5777,-3.5803,-3.5816,-3.5853,-3.5908,-3.5941,-3.6007,-3.6061,-3.6111,-3.6133,-3.6124,-3.6125,-3.6139,-3.6137,-3.6131,-3.6135,-3.5981,-3.6121,-3.612,-3.6119,-3.6118,-3.6118,-3.565,-3.569,-3.5726,-3.5776,-3.5804,-3.5839,-3.5879,-3.5898,-3.5944,-3.5998,-3.6001,-3.6061,-3.6098,-3.6165,-3.619,-3.6238,-3.6222,-3.6242,-3.6247,-3.6252,-3.6256,-3.6124,-3.6247,-3.6247,-3.6247,-3.6247,-3.6246,0,-3.5762,-3.5785,-3.5831,-3.5882,-3.5922,-3.5911,-3.5952,-3.5986,-3.6038,-3.6074,-3.6116,-3.6181,-3.6233,-3.626,-3.6312,-3.6345,-3.6343,-3.6359,-3.6356,-3.6361,-3.6267,-3.6249,-3.636,-3.636,-3.636,-3.636,-3.636,-3.636,-3.5825,-3.5893,-3.5903,-3.5985,-3.6008,-3.6066,-3.609,-3.6123,-3.6151,-3.6223,-3.6266,-3.6283,-3.6316,-3.6371,-3.6419,-3.6426,-3.6445,-3.6463,-3.6468,-3.6379,-3.6367,-3.6356,-3.634,-3.6467,-3.6467,-3.6557,-3.6558,-3.6559]},{"header":{"parameterUnit":"m.s-1","parameterCategory":1,"la1":30.2991,"la2":30.254,"lo1":-89.0895,"lo2":-89.0444,"dx":0.0017,"dy":0.0017,"nx":28,"ny":28,"refTime":"2022-12-29T15:00:00:Z","depth":0,"parameterNumber":3,"parameterNumberName":"V-component_of_WINDS"},"data":[0,0,0,0,0,0,0,0,0,0,0,0,0,0,0,0,0,0,0,0,0,0,0,0,0,0,0,0,0,0,0,0,0,0,0,0,0,0,0,0,0,0,0,0,0,0,0,0,0,0,0,0,0,0,0,0,0,0,1.26,1.26,0,1.2644,1.2645,1.2645,1.271,1.2711,1.2712,1.2714,1.2757,1.2757,1.2757,0,0,0,0,0,0,0,0,0,0,0,0,0,1.2571,1.2571,1.26,1.26,1.2601,1.2644,1.2645,1.2645,1.271,1.2711,1.2713,1.2714,1.2757,1.2757,1.2757,0,0,0,0,0,0,0,0,0,0,0,0,0,1.2596,1.2571,1.26,1.2638,1.2642,1.2644,1.2645,1.2646,1.271,1.2711,1.2713,1.2715,1.2757,1.2757,1.2757,1.2723,0,0,1.2757,1.2757,0,0,0,0,0,0,0,0,1.2595,1.2597,1.2632,1.2636,1.264,1.2674,1.2651,1.2672,1.2709,1.2684,1.2714,1.2716,1.2727,1.273,1.2735,1.2725,1.2727,1.2757,1.2757,1.2757,1.2757,0,0,0,0,0,0,0,1.2593,1.2596,1.2617,1.2633,1.2637,1.2654,1.2659,1.2655,1.2695,1.2686,1.2691,1.2696,1.273,1.2734,1.2736,1.2728,1.2757,1.2757,1.2757,1.2757,1.2698,1.2696,0,0,0,0,0,0,1.2586,1.2594,1.2616,1.2619,1.2621,1.2653,1.2659,1.2661,1.2696,1.2703,1.2694,1.2699,1.2733,1.2736,1.2738,1.2704,1.2757,1.2757,1.2757,1.2699,1.2697,1.2695,0,0,0,0,0,0,1.2585,1.2587,1.2614,1.2608,1.2612,1.2652,1.2653,1.2661,1.2666,1.2702,1.2709,1.2691,1.2735,1.2738,1.2728,1.2706,1.2757,1.2758,1.2701,1.2699,1.2696,1.2634,0,0,0,0,0,0,1.2584,1.2586,1.2574,1.2607,1.2612,1.2603,1.2652,1.2661,1.2666,1.2672,1.2701,1.2707,1.2736,1.2727,1.2728,1.2707,1.2758,1.2703,1.27,1.2697,1.2638,1.263,1.2622,0,0,0,0,0,1.2582,1.2553,1.2573,1.2575,1.2598,1.2601,1.2605,1.2639,1.2664,1.2652,1.2676,1.2706,1.2708,1.2725,1.2727,1.2706,1.2705,1.2701,1.2697,1.2642,1.2631,1.2623,0,0,0,0,0,0,1.2515,1.2558,1.258,1.2561,1.2577,1.2612,1.2598,1.2627,1.2636,1.2641,1.2683,1.2689,1.2674,1.2689,1.2707,1.2678,1.2711,1.2708,1.2669,1.2659,1.2651,1.2649,1.2758,0,0,0,0,0,1.2498,1.2497,1.2535,1.2514,1.2522,1.2558,1.2561,1.2587,1.2605,1.2612,1.2635,1.2651,1.2656,1.2658,1.2664,1.264,1.2649,1.2627,1.2619,1.2612,1.2609,1.2601,1.2592,1.2683,1.2683,1.2683,0,0,1.2462,1.2486,1.2483,1.2501,1.2517,1.2517,1.2564,1.256,1.2561,1.2611,1.2605,1.2622,1.2643,1.2627,1.2621,1.2639,1.2586,1.2608,1.2602,1.2603,1.2596,1.2588,1.258,1.2681,1.2681,1.2681,0,0,1.2398,1.2414,1.2401,1.2416,1.244,1.2466,1.2462,1.2494,1.2508,1.2502,1.2541,1.2542,1.2548,1.2563,1.2571,1.2515,1.2545,1.2516,1.2475,1.2467,1.246,1.2454,1.2436,1.2429,1.2512,1.2512,1.2512,0,1.235,1.2352,1.239,1.2385,1.2393,1.2441,1.2428,1.2441,1.2465,1.247,1.249,1.2501,1.2518,1.2508,1.2495,1.2499,1.2498,1.2513,1.2458,1.2452,1.2447,1.2431,1.2424,1.2509,1.2509,1.2509,1.251,0,1.2294,1.2294,1.228,1.2305,1.2311,1.2302,1.234,1.2341,1.2367,1.239,1.2385,1.2408,1.2421,1.242,1.2443,1.2413,1.2424,1.245,1.2485,1.2434,1.242,1.2414,1.2504,1.2505,1.2506,1.2507,0,0,1.2187,1.2235,1.2229,1.2243,1.2274,1.2275,1.2269,1.2283,1.2285,1.23,1.2298,1.2304,1.2329,1.2338,1.2364,1.2356,1.2315,1.2384,1.2385,1.2372,1.2286,1.2268,1.226,1.2334,1.2333,1.2332,1.2286,0,1.213,1.2124,1.216,1.2144,1.2146,1.2193,1.2188,1.2207,1.2229,1.2234,1.2259,1.2263,1.2295,1.2301,1.2296,1.2321,1.2298,1.2324,1.2333,1.2333,1.2328,1.2253,1.2233,1.2187,1.228,1.2279,1.2278,0,1.2063,1.2078,1.2063,1.2098,1.21,1.2095,1.2113,1.2117,1.214,1.2157,1.2169,1.22,1.2198,1.2231,1.2229,1.2246,1.2252,1.2265,1.2264,1.2268,1.2304,1.2256,1.2174,1.2167,1.2269,1.227,1.2271,0,1.1991,1.2006,1.2,1.2009,1.2049,1.2045,1.2062,1.2087,1.2094,1.2109,1.2115,1.2129,1.2137,1.2147,1.2182,1.2202,1.2177,1.2212,1.2192,1.2191,1.2186,1.2186,1.2105,1.2186,1.2186,1.2186,1.2186,0,1.1925,1.1914,1.1968,1.1965,1.1955,1.1996,1.1986,1.2007,1.2029,1.2031,1.2071,1.2072,1.2117,1.2123,1.2149,1.2146,1.2148,1.2163,1.217,1.216,1.2159,1.2166,1.2171,1.2184,1.2185,1.2185,1.2185,0,1.1842,1.1877,1.1875,1.1914,1.1923,1.1915,1.1949,1.1947,1.1973,1.1975,1.1978,1.2018,1.2027,1.2063,1.208,1.2098,1.2087,1.21,1.208,1.2085,1.2064,1.2066,1.1986,1.1979,1.2062,1.2061,1.206,0,1.1799,1.1792,1.1832,1.1837,1.1852,1.1858,1.1867,1.1908,1.1915,1.1943,1.1939,1.1952,1.1965,1.1979,1.2009,1.2024,1.2039,1.201,1.2041,1.2032,1.2041,1.2042,1.2043,1.2003,1.2002,1.2001,1.2001,0,1.1719,1.1738,1.1749,1.1767,1.1776,1.1792,1.181,1.1812,1.1858,1.1864,1.1875,1.1885,1.1905,1.1919,1.1938,1.1956,1.1986,1.1991,1.1987,1.1978,1.1967,1.1975,1.2063,1.1992,1.1993,1.1994,1.1994,1.1994,1.1656,1.1654,1.1683,1.1694,1.1713,1.173,1.1732,1.1758,1.1769,1.1789,1.1812,1.1822,1.1848,1.1878,1.1893,1.1901,1.1918,1.1912,1.1911,1.191,1.1906,1.1965,1.1905,1.1905,1.1905,1.1905,1.1906,0,1.1581,1.1602,1.1613,1.1638,1.1648,1.1677,1.1699,1.1706,1.1714,1.1736,1.1749,1.1763,1.1777,1.1809,1.1826,1.1827,1.1842,1.183,1.1832,1.1836,1.1889,1.1891,1.1818,1.1818,1.1818,1.1818,1.1818,1.1818,1.1543,1.1542,1.1564,1.1574,1.1595,1.1605,1.1616,1.1632,1.165,1.1665,1.1678,1.1699,1.1726,1.1746,1.1761,1.177,1.1775,1.176,1.1774,1.1823,1.1831,1.1839,1.1842,1.176,1.176,1.172,1.172,1.172]}]]